Regional Weather Roundup
Issued by NWS

Home | Current Version | Previous Version | Text Only | Print | Product List | Glossary On
Versions: 1 2 3 4 5 6 7 8 9 10 11 12 13 14 15 16 17 18 19 20 21 22 23 24 25 26 27 28 29 30 31 32 33 34 35 36 37 38 39 40 41 42 43 44 45 46 47 48 49 50
000
ASUS43 KMKX 241820
RWRWI

WISCONSIN REGIONAL WEATHER ROUNDUP
NATIONAL WEATHER SERVICE MILWAUKEE/SULLIVAN WI
100 PM CDT FRI MAY 24 2019

NOTE: "FAIR" INDICATES FEW OR NO CLOUDS BELOW 12,000 FEET WITH NO
SIGNIFICANT WEATHER AND/OR OBSTRUCTIONS TO VISIBILITY.

WIZ001-002-006>008-014>016-023>028-241900-
NORTHWEST WISCONSIN

CITY           SKY/WX    TMP DP  RH WIND       PRES   REMARKS
SUPERIOR ARPT  CLOUDY    41  41 100 E16G24    29.94F
6HR MIN TEMP:  41; 6HR MAX TEMP:  46;

ASHLAND        CLOUDY    52  47  83 VRB5      29.99F
6HR MIN TEMP:  48; 6HR MAX TEMP:  56;

HAYWARD        CLOUDY    55  49  80 SE9G18    29.95F
6HR MIN TEMP:  49; 6HR MAX TEMP:  57; 6HR PCP: TRACE;

SIREN          CLOUDY    55  48  76 SE14G20   29.90F
6HR MIN TEMP:  51; 6HR MAX TEMP:  57;

CUMBERLAND     CLOUDY    52  48  87 SE14G21   29.92F
RICE LAKE      CLOUDY    54  51  89 E10       29.93F
6HR MIN TEMP:  51; 6HR MAX TEMP:  55;

CHETEK         LGT RAIN  54  51  90 SE6G18    29.94F
6HR MIN TEMP:  51; 6HR MAX TEMP:  54;

LADYSMITH      CLOUDY    55  50  83 SE9       29.99F
6HR MIN TEMP:  49; 6HR MAX TEMP:  55;

EAU CLAIRE     CLOUDY    56  50  80 SE15G23   29.93F
6HR MIN TEMP:  52; 6HR MAX TEMP:  57; 6HR PCP: TRACE;

MENOMONIE      CLOUDY    54  49  83 E17       29.91F
6HR MIN TEMP:  49; 6HR MAX TEMP:  54;

NEW RICHMOND   CLOUDY    57  51  82 SE13      29.88F
6HR MIN TEMP:  51; 6HR MAX TEMP:  56;

OSCEOLA        CLOUDY    56  52  85 SE13G18   29.91F
6HR MIN TEMP:  53; 6HR MAX TEMP:  56;

$$

WIZ003>005-009-010-017-018-241900-
NORTH CENTRAL WISCONSIN

CITY           SKY/WX    TMP DP  RH WIND       PRES   REMARKS
MANITOWISH WTR CLOUDY    53  47  79 SE9G16    30.01S
6HR MIN TEMP:  46; 6HR MAX TEMP:  53;

ARBOR VITAE    CLOUDY    57  50  77 SE15G22   30.00F
6HR MIN TEMP:  49; 6HR MAX TEMP:  57;

WOODRUFF       CLOUDY    57  50  77 SE15G22   30.00F
6HR MIN TEMP:  49; 6HR MAX TEMP:  57;

RHINELANDER    CLOUDY    56  45  66 S9        30.05F
6HR MIN TEMP:  50; 6HR MAX TEMP:  56; 6HR PCP: TRACE;

EAGLE RIVER    CLOUDY    53  44  70 SE10      30.03F
6HR MIN TEMP:  46; 6HR MAX TEMP:  53;

LAND O LAKES   CLOUDY    53  45  73 SE7G16    30.04F
6HR MIN TEMP:  46; 6HR MAX TEMP:  54;

PHILLIPS       CLOUDY    52  50  94 SE10      30.00F
6HR MIN TEMP:  47; 6HR MAX TEMP:  52;

TOMAHAWK       CLOUDY    50  47  89 SE7       30.02F
6HR MIN TEMP:  47; 6HR MAX TEMP:  53;

MEDFORD        CLOUDY    51  48  88 SE9       30.01S
6HR MIN TEMP:  47; 6HR MAX TEMP:  51;

MERRILL        CLOUDY    52  50  90 SE9       30.04F
6HR MIN TEMP:  48; 6HR MAX TEMP:  52;

$$

WIZ029-030-035-036-043>047-241900-
CENTRAL WISCONSIN

CITY           SKY/WX    TMP DP  RH WIND       PRES   REMARKS
WAUSAU         CLOUDY    52  49  89 SE12      30.04R
6HR MIN TEMP:  49; 6HR MAX TEMP:  52; 6HR PCP:  0.01;

MOSINEE        CLOUDY    54  48  82 E7        30.05R
MARSHFIELD     CLOUDY    53  50  89 SE15G21   30.01R
6HR MIN TEMP:  49; 6HR MAX TEMP:  54; 6HR PCP: TRACE;

STEVENS POINT  CLOUDY    52  50  94 SE13      30.05R
6HR MIN TEMP:  48; 6HR MAX TEMP:  52;

WAUPACA        CLOUDY    57  52  83 E9        30.06R
6HR MIN TEMP:  52; 6HR MAX TEMP:  58;

WAUTOMA        CLOUDY    56  53  90 E6        30.05R
6HR MIN TEMP:  50; 6HR MAX TEMP:  56; 6HR PCP:  0.07;

WISC RAPIDS    CLOUDY    55  51  86 E10       30.03R
6HR MIN TEMP:  50; 6HR MAX TEMP:  56; 6HR PCP:  0.02;

CAMP DOUGLAS   CLOUDY    57  57 100 E7        29.99R
                                      6HR PCP:  0.09;

$$

WIZ011>013-019>022-031-037>040-048>050-241900-
NORTHEAST WISCONSIN

CITY           SKY/WX    TMP DP  RH WIND       PRES   REMARKS
ANTIGO         CLOUDY    51  48  90 SE12      30.05F
6HR MIN TEMP:  47; 6HR MAX TEMP:  51;

SHAWANO        CLOUDY    59  50  72 E13       30.06S
6HR MIN TEMP:  52; 6HR MAX TEMP:  58; 6HR PCP:  0.01;

OCONTO         CLOUDY    53  46  77 E9G16     30.09F
6HR MIN TEMP:  50; 6HR MAX TEMP:  54;

STURGEON BAY   CLOUDY    51  46  83 E14       30.11F
6HR MIN TEMP:  49; 6HR MAX TEMP:  52;

GREEN BAY      CLOUDY    56  49  77 E9G22     30.07F
6HR MIN TEMP:  51; 6HR MAX TEMP:  56; 6HR PCP: TRACE;

MANITOWOC      CLOUDY    50  46  86 SE14      30.10F
6HR MIN TEMP:  48; 6HR MAX TEMP:  50; 6HR PCP: TRACE;

APPLETON       CLOUDY    54  46  76 E10G21    30.04F
CLINTONVILLE   CLOUDY    56  48  74 SE7G18    30.06S
6HR MIN TEMP:  49; 6HR MAX TEMP:  56;

OSHKOSH        PTSUNNY   55  52  89 E16G22    29.98F
6HR MIN TEMP:  52; 6HR MAX TEMP:  54; 6HR PCP:  0.05;

$$

WIZ032>034-041-042-053>061-241900-
SOUTHWEST WISCONSIN

CITY           SKY/WX    TMP DP  RH WIND       PRES   REMARKS
LA CROSSE      CLOUDY    63  55  75 SE10      29.93F
6HR MIN TEMP:  55; 6HR MAX TEMP:  63; 6HR PCP:  0.12;

SPARTA         CLOUDY    58  55  88 E9        29.95F
6HR MIN TEMP:  49; 6HR MAX TEMP:  58; 6HR PCP:  0.06;

VIROQUA        CLOUDY    61  60  98 S13G21    29.97R
6HR MIN TEMP:  51; 6HR MAX TEMP:  60; 6HR PCP:  0.15;

BOSCOBEL       FAIR      65  57  75 VRB3      29.97S
6HR MIN TEMP:  55; 6HR MAX TEMP:  65; 6HR PCP:  0.38;

PRAIRIE DU CHI PTSUNNY   63  56  79 SE12      29.93F
6HR MIN TEMP:  54; 6HR MAX TEMP:  63; 6HR PCP:  0.39;

PLATTEVILLE    FAIR      62  61  96 S15G21    30.00R
6HR MIN TEMP:  54; 6HR MAX TEMP:  61; 6HR PCP:  0.81;

$$

WIZ056-057-062-063-064-067-068-241900-
SOUTH CENTRAL WISCONSIN

CITY           SKY/WX    TMP DP  RH WIND       PRES   REMARKS
REEDSBURG      CLOUDY    58  58  97 S7        29.97F
6HR MIN TEMP:  51; 6HR MAX TEMP:  57;

BARABOO/DELLS  CLOUDY    57  55  91 SE13      29.97F
6HR MIN TEMP:  51; 6HR MAX TEMP:  57; 6HR PCP:  0.24;

LONE ROCK      CLOUDY    62  57  83 SE10      29.97F
6HR MIN TEMP:  53; 6HR MAX TEMP:  62; 6HR PCP:  0.32;

MINERAL POINT  FAIR      61 N/A N/A S15G25    29.99S
MADISON        CLOUDY    60  56  86 SE17      29.99F
6HR MIN TEMP:  53; 6HR MAX TEMP:  60; 6HR PCP:  0.51;

MIDDLETON      CLOUDY    61  58  90 SE14      30.02R
6HR MIN TEMP:  54; 6HR MAX TEMP:  61; 6HR PCP:  0.41;

WATERTOWN      CLOUDY    57  57 100 E17       30.01F
6HR MIN TEMP:  52; 6HR MAX TEMP:  57;

MONROE         FAIR      60  57  88 SE20      30.01S
6HR MIN TEMP:  52; 6HR MAX TEMP:  60; 6HR PCP:  0.68;

JANESVILLE     LGT RAIN  59  59 100 SE12      30.03F
$$

WIZ051-052-058>065-066-070>072-241900-
SOUTHEAST WISCONSIN

CITY           SKY/WX    TMP DP  RH WIND       PRES   REMARKS
MILWAUKEE      LGT RAIN  52  50  93 E12       30.03F VSB 3/4
6HR MIN TEMP:  52; 6HR MAX TEMP:  57; 6HR PCP:  0.43;

WAUKESHA       CLOUDY    54  54 100 E7        30.08F
MILWAUKEE/TIMM LGT RAIN  54  48  82 E3        30.09F FOG
RACINE         LGT RAIN  53  51  93 E13       30.05F
6HR MIN TEMP:  53; 6HR MAX TEMP:  57; 6HR PCP:  0.41;

KENOSHA        LGT RAIN  56  55  97 SE17G24   30.04F FOG
6HR MIN TEMP:  54; 6HR MAX TEMP:  58; 6HR PCP:  0.39;

FOND DU LAC    LGT RAIN  55  51  86 SE21G26   30.02F
6HR MIN TEMP:  53; 6HR MAX TEMP:  56; 6HR PCP:  0.13;

SHEBOYGAN      LGT RAIN  51  49  92 SE8       30.07F FOG
6HR MIN TEMP:  48; 6HR MAX TEMP:  53; 6HR PCP:  0.08;

WEST BEND      LGT RAIN  52  52 100 E6        30.09F
JUNEAU         DRIZZLE   55  54  98 SE14G37   30.01F
6HR MIN TEMP:  50; 6HR MAX TEMP:  56; 6HR PCP:  0.26;

$$

LSZ147-162-241900-
LAKE SUPERIOR

STATION/POSITION TIME  TEMP    WIND        PRES    WAVE
                       AIR SEA DIR/SP/G            HT/PER
                 (UTC) (F)     (DEG/KT/KT) (MB)    (FT/S)
W MID LAKE BUOY  1750   40 37   60/ 14/ 16 1018.0F   1/ 3
$$

LMZ867-665-643>646-241900-
LAKE MICHIGAN

STATION/POSITION TIME  TEMP    WIND        PRES    WAVE
                       AIR SEA DIR/SP/G            HT/PER
                 (UTC) (F)     (DEG/KT/KT) (MB)    (F


USA.gov is the U.S. government's official web portal to all federal, state and local government web resources and services.